, OR

(GMT )
Tillamook

Weather History for KTMK - June, 2014

Change the Weather History Date:

Tuesday, June 10, 2014

  Actual Average Record
Temperature  
Mean Temperature 52 °F -  
Max Temperature 64 °F - - ()
Min Temperature 41 °F - - ()
Degree Days  
Heating Degree Days 12    
Growing Degree Days 2 (Base 50)    
Moisture  
Dew Point 46 °F    
Average Humidity 80    
Maximum Humidity 100    
Minimum Humidity 52    
Precipitation  
Precipitation 0.00 in - - ()
Sea Level Pressure  
Sea Level Pressure 30.16 in    
Wind  
Wind Speed 4 mph (West)    
Max Wind Speed 21 mph    
Max Gust Speed 26 mph    
Visibility 10 miles    
Events      
Averages and records for this station are not official NWS values.
T = Trace of Precipitation, MM = Missing Value Source: NWS Daily Summary

Daily Weather History Graph

Daily Weather History Graph

Search for Another Location

Airport or City:

Trip Planner

Search our weather history database for the weather conditions in past years. The results will help you decide how hot, cold, wet, or windy it might be!

Date:

Astronomy

Jun. 10, 2014 Rise Set
Actual Time 6:26 AM MDT 10:03 PM MDT
Civil Twilight 5:49 AM MDT 10:40 PM MDT
Nautical Twilight 4:59 AM MDT 11:30 PM MDT
Astronomical Twilight 3:52 AM MDT 12:37 AM MDT
Moon 7:27 PM MDT (6/10) 4:44 AM MDT (6/10)
Length of Visible Light 16h 51m
Length of Day
15h 36m
Waxing Gibbous, 92% of the Moon is Illuminated
Jun 10
Waxing Gibbous
Jun 12
Full
Jun 19
Last Quarter
Jun 27
New
Jul 5
First Quarter

Hourly Weather History & Observations

Time (MDT) Temp. Windchill Dew Point Humidity Pressure Visibility Wind Dir Wind Speed Gust Speed Precip Events Conditions
12:15 AM 50.0 °F - 46.4 °F 87% 30.17 in 10.0 mi SW 3.5 mph - N/A   Clear
12:35 AM 50.0 °F - 46.4 °F 87% 30.17 in 10.0 mi Calm Calm - N/A   Clear
12:55 AM 48.2 °F - 46.4 °F 93% 30.17 in 10.0 mi SSE 3.5 mph - N/A   Clear
1:15 AM 50.0 °F - 46.4 °F 87% 30.17 in 10.0 mi SSE 3.5 mph - N/A   Clear
1:35 AM 48.2 °F - 46.4 °F 93% 30.17 in 10.0 mi SE 3.5 mph - N/A   Clear
1:55 AM 46.4 °F - 46.4 °F 100% 30.17 in 10.0 mi Calm Calm - N/A   Clear
2:15 AM 46.4 °F 45.2 °F 46.4 °F 100% 30.16 in 10.0 mi SE 3.5 mph - N/A   Clear
2:35 AM 46.4 °F - 44.6 °F 93% 30.16 in 10.0 mi Calm Calm - N/A   Clear
3:15 AM 46.4 °F - 44.6 °F 93% 30.16 in 10.0 mi Calm Calm - N/A   Clear
3:35 AM 44.6 °F - 44.6 °F 100% 30.17 in 10.0 mi Calm Calm - N/A   Clear
3:55 AM 44.6 °F 42.2 °F 44.6 °F 100% 30.16 in 10.0 mi SE 4.6 mph - N/A   Clear
4:15 AM 44.6 °F - 44.6 °F 100% 30.17 in 10.0 mi Calm Calm - N/A   Clear
4:35 AM 42.8 °F - 42.8 °F 100% 30.17 in 10.0 mi Calm Calm - N/A   Clear
4:55 AM 42.8 °F - 42.8 °F 100% 30.17 in 10.0 mi Calm Calm - N/A   Clear
5:15 AM 44.6 °F - 42.8 °F 93% 30.17 in 10.0 mi Calm Calm - N/A   Clear
5:35 AM 42.8 °F - 42.8 °F 100% 30.17 in 10.0 mi Calm Calm - N/A   Clear
5:55 AM 41.0 °F - 41.0 °F 100% 30.17 in 10.0 mi Calm Calm - N/A   Clear
6:15 AM 41.0 °F - 41.0 °F 100% 30.17 in 10.0 mi Calm Calm - N/A   Clear
6:35 AM 41.0 °F 39.0 °F 41.0 °F 100% 30.17 in 10.0 mi NNE 3.5 mph - N/A   Clear
6:55 AM 42.8 °F - 41.0 °F 93% 30.17 in 10.0 mi Calm Calm - N/A   Mostly Cloudy
7:15 AM 44.6 °F 43.1 °F 44.6 °F 100% 30.17 in 10.0 mi ESE 3.5 mph - N/A   Overcast
7:35 AM 44.6 °F - 44.6 °F 100% 30.17 in 10.0 mi Calm Calm - N/A   Scattered Clouds
7:55 AM 44.6 °F - 42.8 °F 93% 30.17 in 10.0 mi Calm Calm - N/A   Scattered Clouds
8:15 AM 46.4 °F - 44.6 °F 93% 30.18 in 10.0 mi Calm Calm - N/A   Overcast
8:55 AM 50.0 °F - 46.4 °F 87% 30.18 in 10.0 mi Calm Calm - N/A   Mostly Cloudy
9:15 AM 51.8 °F - 46.4 °F 82% 30.18 in 10.0 mi Calm Calm - N/A   Mostly Cloudy
9:35 AM 53.6 °F - 46.4 °F 77% 30.18 in 10.0 mi Calm Calm - N/A   Mostly Cloudy
9:55 AM 55.4 °F - 46.4 °F 72% 30.17 in 10.0 mi Calm Calm - N/A   Mostly Cloudy
10:15 AM 57.2 °F - 46.4 °F 67% 30.18 in 10.0 mi Calm Calm - N/A   Scattered Clouds
10:35 AM 59.0 °F - 44.6 °F 59% 30.17 in 10.0 mi Calm Calm - N/A   Scattered Clouds
10:55 AM 59.0 °F - 44.6 °F 59% 30.17 in 10.0 mi WSW 3.5 mph - N/A   Scattered Clouds
11:15 AM 60.8 °F - 46.4 °F 59% 30.17 in 10.0 mi NW 5.8 mph - N/A   Scattered Clouds
12:15 PM 62.6 °F - 46.4 °F 55% 30.17 in 10.0 mi NW 10.4 mph - N/A   Clear
12:35 PM 62.6 °F - 46.4 °F 55% 30.17 in 10.0 mi WNW 10.4 mph - N/A   Clear
12:55 PM 62.6 °F - 46.4 °F 55% 30.17 in 10.0 mi WNW 12.7 mph - N/A   Clear
1:35 PM 62.6 °F - 46.4 °F 55% 30.17 in 10.0 mi NW 9.2 mph - N/A   Clear
3:15 PM 64.4 °F - 46.4 °F 52% 30.16 in 10.0 mi NW 16.1 mph - N/A   Clear
3:55 PM 62.6 °F - 48.2 °F 59% 30.15 in 10.0 mi NW 16.1 mph - N/A   Clear
4:15 PM 62.6 °F - 48.2 °F 59% 30.15 in 10.0 mi WNW 16.1 mph 21.9 mph N/A   Clear
4:35 PM 62.6 °F - 48.2 °F 59% 30.16 in 10.0 mi WNW 19.6 mph 23.0 mph N/A   Clear
5:15 PM 62.6 °F - 50.0 °F 63% 30.16 in 10.0 mi WNW 20.7 mph - N/A   Clear
5:55 PM 62.6 °F - 50.0 °F 63% 30.15 in 10.0 mi WNW 17.3 mph 23.0 mph N/A   Clear
6:15 PM 62.6 °F - 50.0 °F 63% 30.14 in 10.0 mi WNW 17.3 mph - N/A   Clear
6:35 PM 62.6 °F - 50.0 °F 63% 30.14 in 10.0 mi WNW 17.3 mph 21.9 mph N/A   Clear
6:55 PM 62.6 °F - 50.0 °F 63% 30.14 in 10.0 mi WNW 19.6 mph 24.2 mph N/A   Clear
7:15 PM 60.8 °F - 50.0 °F 68% 30.13 in 10.0 mi West 18.4 mph 26.5 mph N/A   Clear
7:55 PM 60.8 °F - 50.0 °F 68% 30.13 in 10.0 mi West 15.0 mph 24.2 mph N/A   Clear
8:15 PM 60.8 °F - 50.0 °F 68% 30.13 in 10.0 mi West 16.1 mph - N/A   Clear
9:15 PM 59.0 °F - 50.0 °F 72% 30.13 in 10.0 mi West 10.4 mph - N/A   Clear
9:35 PM 57.2 °F - 50.0 °F 77% 30.13 in 10.0 mi West 5.8 mph - N/A   Clear
10:15 PM 55.4 °F - 50.0 °F 82% 30.13 in 10.0 mi West 5.8 mph - N/A   Clear
10:35 PM 55.4 °F - 50.0 °F 82% 30.13 in 10.0 mi West 4.6 mph - N/A   Clear
10:55 PM 53.6 °F - 50.0 °F 88% 30.13 in 10.0 mi Calm Calm - N/A   Clear
11:15 PM 53.6 °F - 50.0 °F 88% 30.14 in 10.0 mi South 3.5 mph - N/A   Clear
11:35 PM 51.8 °F - 48.2 °F 88% 30.14 in 10.0 mi Calm Calm - N/A   Clear
11:55 PM 51.8 °F - 50.0 °F 94% 30.13 in 10.0 mi South 4.6 mph - N/A   Clear